Data supplied by UK-AIR on 23/3/2023
All Data GMT hour ending 
Status: R =Ratified P=Provisional,P*=As supplied
,,Saltash Callington Road,,,,,,,,,,,,,,,,,,,,,,,
Date,time,"PM<sub>10</sub> particulate matter (Hourly measured)",status,unit,"PM<sub>2.5</sub> particulate matter (Hourly measured)",status,unit
 
01-01-2022,01:00,20.290,R,ugm-3 (Ref.eq),8.000,R,ugm-3 (BAM)
01-01-2022,02:00,24.155,R,ugm-3 (Ref.eq),8.000,R,ugm-3 (BAM)
01-01-2022,03:00,21.256,R,ugm-3 (Ref.eq),8.000,R,ugm-3 (BAM)
01-01-2022,04:00,19.324,R,ugm-3 (Ref.eq),11.000,R,ugm-3 (BAM)
01-01-2022,05:00,26.087,R,ugm-3 (Ref.eq),8.000,R,ugm-3 (BAM)
01-01-2022,06:00,29.952,R,ugm-3 (Ref.eq),7.000,R,ugm-3 (BAM)
01-01-2022,07:00,37.682,R,ugm-3 (Ref.eq),11.000,R,ugm-3 (BAM)
01-01-2022,08:00,37.682,R,ugm-3 (Ref.eq),10.000,R,ugm-3 (BAM)
01-01-2022,09:00,45.411,R,ugm-3 (Ref.eq),12.000,R,ugm-3 (BAM)
01-01-2022,10:00,50.242,R,ugm-3 (Ref.eq),16.000,R,ugm-3 (BAM)
01-01-2022,11:00,54.107,R,ugm-3 (Ref.eq),22.000,R,ugm-3 (BAM)
01-01-2022,12:00,52.175,R,ugm-3 (Ref.eq),23.000,R,ugm-3 (BAM)
01-01-2022,13:00,59.904,R,ugm-3 (Ref.eq),22.000,R,ugm-3 (BAM)
01-01-2022,14:00,57.006,R,ugm-3 (Ref.eq),20.000,R,ugm-3 (BAM)
01-01-2022,15:00,60.871,R,ugm-3 (Ref.eq),19.000,R,ugm-3 (BAM)
01-01-2022,16:00,53.141,R,ugm-3 (Ref.eq),23.000,R,ugm-3 (BAM)
01-01-2022,17:00,48.310,R,ugm-3 (Ref.eq),19.000,R,ugm-3 (BAM)
01-01-2022,18:00,52.175,R,ugm-3 (Ref.eq),19.000,R,ugm-3 (BAM)
01-01-2022,19:00,41.547,R,ugm-3 (Ref.eq),14.000,R,ugm-3 (BAM)
01-01-2022,20:00,37.682,R,ugm-3 (Ref.eq),10.000,R,ugm-3 (BAM)
01-01-2022,21:00,47.344,R,ugm-3 (Ref.eq),15.000,R,ugm-3 (BAM)
01-01-2022,22:00,36.716,R,ugm-3 (Ref.eq),13.000,R,ugm-3 (BAM)
01-01-2022,23:00,41.547,R,ugm-3 (Ref.eq),14.000,R,ugm-3 (BAM)
01-01-2022,24:00,32.851,R,ugm-3 (Ref.eq),11.000,R,ugm-3 (BAM)
02-01-2022,01:00,34.783,R,ugm-3 (Ref.eq),11.000,R,ugm-3 (BAM)
02-01-2022,02:00,20.290,R,ugm-3 (Ref.eq),9.000,R,ugm-3 (BAM)
02-01-2022,03:00,21.256,R,ugm-3 (Ref.eq),6.000,R,ugm-3 (BAM)
02-01-2022,04:00,13.527,R,ugm-3 (Ref.eq),3.000,R,ugm-3 (BAM)
02-01-2022,05:00,11.594,R,ugm-3 (Ref.eq),5.000,R,ugm-3 (BAM)
02-01-2022,06:00,5.797,R,ugm-3 (Ref.eq),4.000,R,ugm-3 (BAM)
02-01-2022,07:00,3.865,R,ugm-3 (Ref.eq),3.000,R,ugm-3 (BAM)
02-01-2022,08:00,9.662,R,ugm-3 (Ref.eq),3.000,R,ugm-3 (BAM)
02-01-2022,09:00,16.425,R,ugm-3 (Ref.eq),5.000,R,ugm-3 (BAM)
02-01-2022,10:00,19.324,R,ugm-3 (Ref.eq),6.000,R,ugm-3 (BAM)
02-01-2022,11:00,18.358,R,ugm-3 (Ref.eq),5.000,R,ugm-3 (BAM)
02-01-2022,12:00,14.493,R,ugm-3 (Ref.eq),3.000,R,ugm-3 (BAM)
02-01-2022,13:00,22.223,R,ugm-3 (Ref.eq),5.000,R,ugm-3 (BAM)
02-01-2022,14:00,10.628,R,ugm-3 (Ref.eq),6.000,R,ugm-3 (BAM)
02-01-2022,15:00,14.493,R,ugm-3 (Ref.eq),4.000,R,ugm-3 (BAM)
02-01-2022,16:00,15.459,R,ugm-3 (Ref.eq),4.000,R,ugm-3 (BAM)
02-01-2022,17:00,20.290,R,ugm-3 (Ref.eq),8.000,R,ugm-3 (BAM)
02-01-2022,18:00,16.425,R,ugm-3 (Ref.eq),6.000,R,ugm-3 (BAM)
02-01-2022,19:00,23.189,R,ugm-3 (Ref.eq),6.000,R,ugm-3 (BAM)
02-01-2022,20:00,25.121,R,ugm-3 (Ref.eq),8.000,R,ugm-3 (BAM)
02-01-2022,21:00,28.986,R,ugm-3 (Ref.eq),8.000,R,ugm-3 (BAM)
02-01-2022,22:00,25.121,R,ugm-3 (Ref.eq),7.000,R,ugm-3 (BAM)
02-01-2022,23:00,24.155,R,ugm-3 (Ref.eq),7.000,R,ugm-3 (BAM)
02-01-2022,24:00,18.358,R,ugm-3 (Ref.eq),9.000,R,ugm-3 (BAM)
03-01-2022,01:00,29.952,R,ugm-3 (Ref.eq),8.000,R,ugm-3 (BAM)
03-01-2022,02:00,19.324,R,ugm-3 (Ref.eq),9.000,R,ugm-3 (BAM)
03-01-2022,03:00,29.952,R,ugm-3 (Ref.eq),12.000,R,ugm-3 (BAM)
03-01-2022,04:00,17.392,R,ugm-3 (Ref.eq),7.000,R,ugm-3 (BAM)
03-01-2022,05:00,4.831,R,ugm-3 (Ref.eq),-1.000,R,ugm-3 (BAM)
03-01-2022,06:00,2.899,R,ugm-3 (Ref.eq),,,
03-01-2022,07:00,10.628,R,ugm-3 (Ref.eq),-3.000,R,ugm-3 (BAM)
03-01-2022,08:00,14.493,R,ugm-3 (Ref.eq),-1.000,R,ugm-3 (BAM)
03-01-2022,09:00,13.527,R,ugm-3 (Ref.eq),-1.000,R,ugm-3 (BAM)
03-01-2022,10:00,15.459,R,ugm-3 (Ref.eq),1.000,R,ugm-3 (BAM)
03-01-2022,11:00,17.392,R,ugm-3 (Ref.eq),2.000,R,ugm-3 (BAM)
03-01-2022,12:00,18.358,R,ugm-3 (Ref.eq),4.000,R,ugm-3 (BAM)
03-01-2022,13:00,16.425,R,ugm-3 (Ref.eq),4.000,R,ugm-3 (BAM)
03-01-2022,14:00,19.324,R,ugm-3 (Ref.eq),4.000,R,ugm-3 (BAM)
03-01-2022,15:00,11.594,R,ugm-3 (Ref.eq),4.000,R,ugm-3 (BAM)
03-01-2022,16:00,19.324,R,ugm-3 (Ref.eq),6.000,R,ugm-3 (BAM)
03-01-2022,17:00,19.324,R,ugm-3 (Ref.eq),6.000,R,ugm-3 (BAM)
03-01-2022,18:00,21.256,R,ugm-3 (Ref.eq),10.000,R,ugm-3 (BAM)
03-01-2022,19:00,17.392,R,ugm-3 (Ref.eq),8.000,R,ugm-3 (BAM)
03-01-2022,20:00,20.290,R,ugm-3 (Ref.eq),7.000,R,ugm-3 (BAM)
03-01-2022,21:00,16.425,R,ugm-3 (Ref.eq),6.000,R,ugm-3 (BAM)
03-01-2022,22:00,16.425,R,ugm-3 (Ref.eq),7.000,R,ugm-3 (BAM)
03-01-2022,23:00,21.256,R,ugm-3 (Ref.eq),7.000,R,ugm-3 (BAM)
03-01-2022,24:00,15.459,R,ugm-3 (Ref.eq),5.000,R,ugm-3 (BAM)
04-01-2022,01:00,9.662,R,ugm-3 (Ref.eq),3.000,R,ugm-3 (BAM)
04-01-2022,02:00,10.628,R,ugm-3 (Ref.eq),3.000,R,ugm-3 (BAM)
04-01-2022,03:00,10.628,R,ugm-3 (Ref.eq),3.000,R,ugm-3 (BAM)
04-01-2022,04:00,11.594,R,ugm-3 (Ref.eq),4.000,R,ugm-3 (BAM)
04-01-2022,05:00,13.527,R,ugm-3 (Ref.eq),3.000,R,ugm-3 (BAM)
04-01-2022,06:00,7.730,R,ugm-3 (Ref.eq),2.000,R,ugm-3 (BAM)
04-01-2022,07:00,5.797,R,ugm-3 (Ref.eq),1.000,R,ugm-3 (BAM)
04-01-2022,08:00,5.797,R,ugm-3 (Ref.eq),1.000,R,ugm-3 (BAM)
04-01-2022,09:00,3.865,R,ugm-3 (Ref.eq),2.000,R,ugm-3 (BAM)
04-01-2022,10:00,5.797,R,ugm-3 (Ref.eq),2.000,R,ugm-3 (BAM)
04-01-2022,11:00,6.763,R,ugm-3 (Ref.eq),2.000,R,ugm-3 (BAM)
04-01-2022,12:00,5.797,R,ugm-3 (Ref.eq),0.000,R,ugm-3 (BAM)
04-01-2022,13:00,4.831,R,ugm-3 (Ref.eq),4.000,R,ugm-3 (BAM)
04-01-2022,14:00,6.763,R,ugm-3 (Ref.eq),7.000,R,ugm-3 (BAM)
04-01-2022,15:00,10.628,R,ugm-3 (Ref.eq),4.000,R,ugm-3 (BAM)
04-01-2022,16:00,11.594,R,ugm-3 (Ref.eq),1.000,R,ugm-3 (BAM)
04-01-2022,17:00,11.594,R,ugm-3 (Ref.eq),2.000,R,ugm-3 (BAM)
04-01-2022,18:00,17.392,R,ugm-3 (Ref.eq),4.000,R,ugm-3 (BAM)
04-01-2022,19:00,22.223,R,ugm-3 (Ref.eq),5.000,R,ugm-3 (BAM)
04-01-2022,20:00,11.594,R,ugm-3 (Ref.eq),4.000,R,ugm-3 (BAM)
04-01-2022,21:00,11.594,R,ugm-3 (Ref.eq),4.000,R,ugm-3 (BAM)
04-01-2022,22:00,16.425,R,ugm-3 (Ref.eq),6.000,R,ugm-3 (BAM)
04-01-2022,23:00,15.459,R,ugm-3 (Ref.eq),5.000,R,ugm-3 (BAM)
04-01-2022,24:00,12.561,R,ugm-3 (Ref.eq),4.000,R,ugm-3 (BAM)
05-01-2022,01:00,9.662,R,ugm-3 (Ref.eq),5.000,R,ugm-3 (BAM)
05-01-2022,02:00,8.696,R,ugm-3 (Ref.eq),5.000,R,ugm-3 (BAM)
05-01-2022,03:00,9.662,R,ugm-3 (Ref.eq),4.000,R,ugm-3 (BAM)
05-01-2022,04:00,6.763,R,ugm-3 (Ref.eq),4.000,R,ugm-3 (BAM)
05-01-2022,05:00,6.763,R,ugm-3 (Ref.eq),4.000,R,ugm-3 (BAM)
05-01-2022,06:00,9.662,R,ugm-3 (Ref.eq),2.000,R,ugm-3 (BAM)
05-01-2022,07:00,6.763,R,ugm-3 (Ref.eq),0.000,R,ugm-3 (BAM)
05-01-2022,08:00,5.797,R,ugm-3 (Ref.eq),5.000,R,ugm-3 (BAM)
05-01-2022,09:00,15.459,R,ugm-3 (Ref.eq),5.000,R,ugm-3 (BAM)
05-01-2022,10:00,11.594,R,ugm-3 (Ref.eq),2.000,R,ugm-3 (BAM)
05-01-2022,11:00,17.392,R,ugm-3 (Ref.eq),4.000,R,ugm-3 (BAM)
05-01-2022,12:00,29.952,R,ugm-3 (Ref.eq),4.000,R,ugm-3 (BAM)
05-01-2022,13:00,25.121,R,ugm-3 (Ref.eq),2.000,R,ugm-3 (BAM)
05-01-2022,14:00,18.358,R,ugm-3 (Ref.eq),3.000,R,ugm-3 (BAM)
05-01-2022,15:00,12.561,R,ugm-3 (Ref.eq),3.000,R,ugm-3 (BAM)
05-01-2022,16:00,20.290,R,ugm-3 (Ref.eq),2.000,R,ugm-3 (BAM)
05-01-2022,17:00,31.885,R,ugm-3 (Ref.eq),11.000,R,ugm-3 (BAM)
05-01-2022,18:00,47.344,R,ugm-3 (Ref.eq),17.000,R,ugm-3 (BAM)
05-01-2022,19:00,27.054,R,ugm-3 (Ref.eq),20.000,R,ugm-3 (BAM)
05-01-2022,20:00,23.189,R,ugm-3 (Ref.eq),12.000,R,ugm-3 (BAM)
05-01-2022,21:00,27.054,R,ugm-3 (Ref.eq),17.000,R,ugm-3 (BAM)
05-01-2022,22:00,28.020,R,ugm-3 (Ref.eq),18.000,R,ugm-3 (BAM)
05-01-2022,23:00,29.952,R,ugm-3 (Ref.eq),20.000,R,ugm-3 (BAM)
05-01-2022,24:00,16.425,R,ugm-3 (Ref.eq),17.000,R,ugm-3 (BAM)
06-01-2022,01:00,18.358,R,ugm-3 (Ref.eq),15.000,R,ugm-3 (BAM)
06-01-2022,02:00,16.425,R,ugm-3 (Ref.eq),13.000,R,ugm-3 (BAM)
06-01-2022,03:00,15.459,R,ugm-3 (Ref.eq),14.000,R,ugm-3 (BAM)
06-01-2022,04:00,14.493,R,ugm-3 (Ref.eq),11.000,R,ugm-3 (BAM)
06-01-2022,05:00,18.358,R,ugm-3 (Ref.eq),16.000,R,ugm-3 (BAM)
06-01-2022,06:00,12.561,R,ugm-3 (Ref.eq),10.000,R,ugm-3 (BAM)
06-01-2022,07:00,8.696,R,ugm-3 (Ref.eq),8.000,R,ugm-3 (BAM)
06-01-2022,08:00,8.696,R,ugm-3 (Ref.eq),4.000,R,ugm-3 (BAM)
06-01-2022,09:00,7.730,R,ugm-3 (Ref.eq),0.000,R,ugm-3 (BAM)
06-01-2022,10:00,10.628,R,ugm-3 (Ref.eq),4.000,R,ugm-3 (BAM)
06-01-2022,11:00,9.662,R,ugm-3 (Ref.eq),13.000,R,ugm-3 (BAM)
06-01-2022,12:00,11.594,R,ugm-3 (Ref.eq),8.000,R,ugm-3 (BAM)
06-01-2022,13:00,8.696,R,ugm-3 (Ref.eq),3.000,R,ugm-3 (BAM)
06-01-2022,14:00,5.797,R,ugm-3 (Ref.eq),4.000,R,ugm-3 (BAM)
06-01-2022,15:00,7.730,R,ugm-3 (Ref.eq),1.000,R,ugm-3 (BAM)
06-01-2022,16:00,10.628,R,ugm-3 (Ref.eq),0.000,R,ugm-3 (BAM)
06-01-2022,17:00,6.763,R,ugm-3 (Ref.eq),8.000,R,ugm-3 (BAM)
06-01-2022,18:00,19.324,R,ugm-3 (Ref.eq),8.000,R,ugm-3 (BAM)
06-01-2022,19:00,10.628,R,ugm-3 (Ref.eq),4.000,R,ugm-3 (BAM)
06-01-2022,20:00,10.628,R,ugm-3 (Ref.eq),4.000,R,ugm-3 (BAM)
06-01-2022,21:00,17.392,R,ugm-3 (Ref.eq),8.000,R,ugm-3 (BAM)
06-01-2022,22:00,13.527,R,ugm-3 (Ref.eq),7.000,R,ugm-3 (BAM)
06-01-2022,23:00,14.493,R,ugm-3 (Ref.eq),4.000,R,ugm-3 (BAM)
06-01-2022,24:00,5.797,R,ugm-3 (Ref.eq),3.000,R,ugm-3 (BAM)
07-01-2022,01:00,8.696,R,ugm-3 (Ref.eq),2.000,R,ugm-3 (BAM)
07-01-2022,02:00,10.628,R,ugm-3 (Ref.eq),4.000,R,ugm-3 (BAM)
07-01-2022,03:00,8.696,R,ugm-3 (Ref.eq),3.000,R,ugm-3 (BAM)
07-01-2022,04:00,7.730,R,ugm-3 (Ref.eq),1.000,R,ugm-3 (BAM)
07-01-2022,05:00,6.763,R,ugm-3 (Ref.eq),2.000,R,ugm-3 (BAM)
07-01-2022,06:00,5.797,R,ugm-3 (Ref.eq),2.000,R,ugm-3 (BAM)
07-01-2022,07:00,4.831,R,ugm-3 (Ref.eq),3.000,R,ugm-3 (BAM)
07-01-2022,08:00,8.696,R,ugm-3 (Ref.eq),4.000,R,ugm-3 (BAM)
07-01-2022,09:00,9.662,R,ugm-3 (Ref.eq),3.000,R,ugm-3 (BAM)
07-01-2022,10:00,15.459,R,ugm-3 (Ref.eq),1.000,R,ugm-3 (BAM)
07-01-2022,11:00,10.628,R,ugm-3 (Ref.eq),3.000,R,ugm-3 (BAM)
07-01-2022,12:00,6.763,R,ugm-3 (Ref.eq),4.000,R,ugm-3 (BAM)
07-01-2022,13:00,2.899,R,ugm-3 (Ref.eq),0.000,R,ugm-3 (BAM)
07-01-2022,14:00,2.899,R,ugm-3 (Ref.eq),1.000,R,ugm-3 (BAM)
07-01-2022,15:00,10.628,R,ugm-3 (Ref.eq),5.000,R,ugm-3 (BAM)
07-01-2022,16:00,17.392,R,ugm-3 (Ref.eq),7.000,R,ugm-3 (BAM)
07-01-2022,17:00,12.561,R,ugm-3 (Ref.eq),5.000,R,ugm-3 (BAM)
07-01-2022,18:00,9.662,R,ugm-3 (Ref.eq),3.000,R,ugm-3 (BAM)
07-01-2022,19:00,17.392,R,ugm-3 (Ref.eq),4.000,R,ugm-3 (BAM)
07-01-2022,20:00,12.561,R,ugm-3 (Ref.eq),4.000,R,ugm-3 (BAM)
07-01-2022,21:00,11.594,R,ugm-3 (Ref.eq),3.000,R,ugm-3 (BAM)
07-01-2022,22:00,9.662,R,ugm-3 (Ref.eq),4.000,R,ugm-3 (BAM)
07-01-2022,23:00,12.561,R,ugm-3 (Ref.eq),3.000,R,ugm-3 (BAM)
07-01-2022,24:00,14.493,R,ugm-3 (Ref.eq),1.000,R,ugm-3 (BAM)
08-01-2022,01:00,21.256,R,ugm-3 (Ref.eq),0.000,R,ugm-3 (BAM)
08-01-2022,02:00,25.121,R,ugm-3 (Ref.eq),7.000,R,ugm-3 (BAM)
08-01-2022,03:00,23.189,R,ugm-3 (Ref.eq),9.000,R,ugm-3 (BAM)
08-01-2022,04:00,18.358,R,ugm-3 (Ref.eq),7.000,R,ugm-3 (BAM)
08-01-2022,05:00,20.290,R,ugm-3 (Ref.eq),10.000,R,ugm-3 (BAM)
08-01-2022,06:00,18.358,R,ugm-3 (Ref.eq),8.000,R,ugm-3 (BAM)
08-01-2022,07:00,16.425,R,ugm-3 (Ref.eq),6.000,R,ugm-3 (BAM)
08-01-2022,08:00,13.527,R,ugm-3 (Ref.eq),7.000,R,ugm-3 (BAM)
08-01-2022,09:00,8.696,R,ugm-3 (Ref.eq),5.000,R,ugm-3 (BAM)
08-01-2022,10:00,7.730,R,ugm-3 (Ref.eq),0.000,R,ugm-3 (BAM)
08-01-2022,11:00,1.932,R,ugm-3 (Ref.eq),-2.000,R,ugm-3 (BAM)
08-01-2022,12:00,4.831,R,ugm-3 (Ref.eq),-1.000,R,ugm-3 (BAM)
08-01-2022,13:00,5.797,R,ugm-3 (Ref.eq),1.000,R,ugm-3 (BAM)
08-01-2022,14:00,2.899,R,ugm-3 (Ref.eq),0.000,R,ugm-3 (BAM)
08-01-2022,15:00,8.696,R,ugm-3 (Ref.eq),0.000,R,ugm-3 (BAM)
08-01-2022,16:00,6.763,R,ugm-3 (Ref.eq),5.000,R,ugm-3 (BAM)
08-01-2022,17:00,5.797,R,ugm-3 (Ref.eq),4.000,R,ugm-3 (BAM)
08-01-2022,18:00,15.459,R,ugm-3 (Ref.eq),6.000,R,ugm-3 (BAM)
08-01-2022,19:00,15.459,R,ugm-3 (Ref.eq),8.000,R,ugm-3 (BAM)
08-01-2022,20:00,17.392,R,ugm-3 (Ref.eq),8.000,R,ugm-3 (BAM)
08-01-2022,21:00,15.459,R,ugm-3 (Ref.eq),7.000,R,ugm-3 (BAM)
08-01-2022,22:00,16.425,R,ugm-3 (Ref.eq),5.000,R,ugm-3 (BAM)
08-01-2022,23:00,12.561,R,ugm-3 (Ref.eq),3.000,R,ugm-3 (BAM)
08-01-2022,24:00,13.527,R,ugm-3 (Ref.eq),3.000,R,ugm-3 (BAM)
09-01-2022,01:00,16.425,R,ugm-3 (Ref.eq),6.000,R,ugm-3 (BAM)
09-01-2022,02:00,12.561,R,ugm-3 (Ref.eq),7.000,R,ugm-3 (BAM)
09-01-2022,03:00,12.561,R,ugm-3 (Ref.eq),4.000,R,ugm-3 (BAM)
09-01-2022,04:00,15.459,R,ugm-3 (Ref.eq),4.000,R,ugm-3 (BAM)
09-01-2022,05:00,6.763,R,ugm-3 (Ref.eq),5.000,R,ugm-3 (BAM)
09-01-2022,06:00,8.696,R,ugm-3 (Ref.eq),5.000,R,ugm-3 (BAM)
09-01-2022,07:00,6.763,R,ugm-3 (Ref.eq),4.000,R,ugm-3 (BAM)
09-01-2022,08:00,7.730,R,ugm-3 (Ref.eq),2.000,R,ugm-3 (BAM)
09-01-2022,09:00,8.696,R,ugm-3 (Ref.eq),2.000,R,ugm-3 (BAM)
09-01-2022,10:00,11.594,R,ugm-3 (Ref.eq),5.000,R,ugm-3 (BAM)
09-01-2022,11:00,13.527,R,ugm-3 (Ref.eq),6.000,R,ugm-3 (BAM)
09-01-2022,12:00,15.459,R,ugm-3 (Ref.eq),4.000,R,ugm-3 (BAM)
09-01-2022,13:00,17.392,R,ugm-3 (Ref.eq),9.000,R,ugm-3 (BAM)
09-01-2022,14:00,22.223,R,ugm-3 (Ref.eq),12.000,R,ugm-3 (BAM)
09-01-2022,15:00,25.121,R,ugm-3 (Ref.eq),9.000,R,ugm-3 (BAM)
09-01-2022,16:00,15.459,R,ugm-3 (Ref.eq),5.000,R,ugm-3 (BAM)
09-01-2022,17:00,9.662,R,ugm-3 (Ref.eq),5.000,R,ugm-3 (BAM)
09-01-2022,18:00,8.696,R,ugm-3 (Ref.eq),8.000,R,ugm-3 (BAM)
09-01-2022,19:00,7.730,R,ugm-3 (Ref.eq),7.000,R,ugm-3 (BAM)
09-01-2022,20:00,7.730,R,ugm-3 (Ref.eq),7.000,R,ugm-3 (BAM)
09-01-2022,21:00,8.696,R,ugm-3 (Ref.eq),6.000,R,ugm-3 (BAM)
09-01-2022,22:00,7.730,R,ugm-3 (Ref.eq),7.000,R,ugm-3 (BAM)
09-01-2022,23:00,6.763,R,ugm-3 (Ref.eq),7.000,R,ugm-3 (BAM)
09-01-2022,24:00,3.865,R,ugm-3 (Ref.eq),7.000,R,ugm-3 (BAM)
10-01-2022,01:00,6.763,R,ugm-3 (Ref.eq),8.000,R,ugm-3 (BAM)
10-01-2022,02:00,9.662,R,ugm-3 (Ref.eq),10.000,R,ugm-3 (BAM)
10-01-2022,03:00,7.730,R,ugm-3 (Ref.eq),8.000,R,ugm-3 (BAM)
10-01-2022,04:00,4.831,R,ugm-3 (Ref.eq),6.000,R,ugm-3 (BAM)
10-01-2022,05:00,1.932,R,ugm-3 (Ref.eq),4.000,R,ugm-3 (BAM)
10-01-2022,06:00,0.966,R,ugm-3 (Ref.eq),3.000,R,ugm-3 (BAM)
10-01-2022,07:00,3.865,R,ugm-3 (Ref.eq),4.000,R,ugm-3 (BAM)
10-01-2022,08:00,4.831,R,ugm-3 (Ref.eq),4.000,R,ugm-3 (BAM)
10-01-2022,09:00,12.561,R,ugm-3 (Ref.eq),9.000,R,ugm-3 (BAM)
10-01-2022,10:00,7.730,R,ugm-3 (Ref.eq),7.000,R,ugm-3 (BAM)
10-01-2022,11:00,4.831,R,ugm-3 (Ref.eq),4.000,R,ugm-3 (BAM)
10-01-2022,12:00,5.797,R,ugm-3 (Ref.eq),6.000,R,ugm-3 (BAM)
10-01-2022,13:00,3.865,R,ugm-3 (Ref.eq),5.000,R,ugm-3 (BAM)
10-01-2022,14:00,1.932,R,ugm-3 (Ref.eq),7.000,R,ugm-3 (BAM)
10-01-2022,15:00,2.899,R,ugm-3 (Ref.eq),4.000,R,ugm-3 (BAM)
10-01-2022,16:00,1.932,R,ugm-3 (Ref.eq),1.000,R,ugm-3 (BAM)
10-01-2022,17:00,3.865,R,ugm-3 (Ref.eq),5.000,R,ugm-3 (BAM)
10-01-2022,18:00,3.865,R,ugm-3 (Ref.eq),9.000,R,ugm-3 (BAM)
10-01-2022,19:00,8.696,R,ugm-3 (Ref.eq),8.000,R,ugm-3 (BAM)
10-01-2022,20:00,13.527,R,ugm-3 (Ref.eq),8.000,R,ugm-3 (BAM)
10-01-2022,21:00,7.730,R,ugm-3 (Ref.eq),10.000,R,ugm-3 (BAM)
10-01-2022,22:00,3.865,R,ugm-3 (Ref.eq),6.000,R,ugm-3 (BAM)
10-01-2022,23:00,2.899,R,ugm-3 (Ref.eq),4.000,R,ugm-3 (BAM)
10-01-2022,24:00,2.899,R,ugm-3 (Ref.eq),4.000,R,ugm-3 (BAM)
11-01-2022,01:00,1.932,R,ugm-3 (Ref.eq),3.000,R,ugm-3 (BAM)
11-01-2022,02:00,-1.932,R,ugm-3 (Ref.eq),1.000,R,ugm-3 (BAM)
11-01-2022,03:00,-2.899,R,ugm-3 (Ref.eq),2.000,R,ugm-3 (BAM)
11-01-2022,04:00,-0.966,R,ugm-3 (Ref.eq),2.000,R,ugm-3 (BAM)
11-01-2022,05:00,2.899,R,ugm-3 (Ref.eq),0.000,R,ugm-3 (BAM)
11-01-2022,06:00,2.899,R,ugm-3 (Ref.eq),2.000,R,ugm-3 (BAM)
11-01-2022,07:00,0.000,R,ugm-3 (Ref.eq),2.000,R,ugm-3 (BAM)
11-01-2022,08:00,-0.966,R,ugm-3 (Ref.eq),-1.000,R,ugm-3 (BAM)
11-01-2022,09:00,-0.966,R,ugm-3 (Ref.eq),3.000,R,ugm-3 (BAM)
11-01-2022,10:00,1.932,R,ugm-3 (Ref.eq),6.000,R,ugm-3 (BAM)
11-01-2022,11:00,1.932,R,ugm-3 (Ref.eq),4.000,R,ugm-3 (BAM)
11-01-2022,12:00,2.899,R,ugm-3 (Ref.eq),3.000,R,ugm-3 (BAM)
11-01-2022,13:00,1.932,R,ugm-3 (Ref.eq),2.000,R,ugm-3 (BAM)
11-01-2022,14:00,3.865,R,ugm-3 (Ref.eq),2.000,R,ugm-3 (BAM)
11-01-2022,15:00,4.831,R,ugm-3 (Ref.eq),2.000,R,ugm-3 (BAM)
11-01-2022,16:00,5.797,R,ugm-3 (Ref.eq),2.000,R,ugm-3 (BAM)
11-01-2022,17:00,15.459,R,ugm-3 (Ref.eq),2.000,R,ugm-3 (BAM)
11-01-2022,18:00,17.392,R,ugm-3 (Ref.eq),7.000,R,ugm-3 (BAM)
11-01-2022,19:00,19.324,R,ugm-3 (Ref.eq),7.000,R,ugm-3 (BAM)
11-01-2022,20:00,18.358,R,ugm-3 (Ref.eq),11.000,R,ugm-3 (BAM)
11-01-2022,21:00,17.392,R,ugm-3 (Ref.eq),9.000,R,ugm-3 (BAM)
11-01-2022,22:00,17.392,R,ugm-3 (Ref.eq),9.000,R,ugm-3 (BAM)
11-01-2022,23:00,14.493,R,ugm-3 (Ref.eq),10.000,R,ugm-3 (BAM)
11-01-2022,24:00,16.425,R,ugm-3 (Ref.eq),11.000,R,ugm-3 (BAM)
12-01-2022,01:00,14.493,R,ugm-3 (Ref.eq),12.000,R,ugm-3 (BAM)
12-01-2022,02:00,11.594,R,ugm-3 (Ref.eq),11.000,R,ugm-3 (BAM)
12-01-2022,03:00,11.594,R,ugm-3 (Ref.eq),8.000,R,ugm-3 (BAM)
12-01-2022,04:00,15.459,R,ugm-3 (Ref.eq),8.000,R,ugm-3 (BAM)
12-01-2022,05:00,11.594,R,ugm-3 (Ref.eq),7.000,R,ugm-3 (BAM)
12-01-2022,06:00,9.662,R,ugm-3 (Ref.eq),5.000,R,ugm-3 (BAM)
12-01-2022,07:00,8.696,R,ugm-3 (Ref.eq),4.000,R,ugm-3 (BAM)
12-01-2022,08:00,12.561,R,ugm-3 (Ref.eq),10.000,R,ugm-3 (BAM)
12-01-2022,09:00,15.459,R,ugm-3 (Ref.eq),8.000,R,ugm-3 (BAM)
12-01-2022,10:00,8.696,R,ugm-3 (Ref.eq),6.000,R,ugm-3 (BAM)
12-01-2022,11:00,20.290,R,ugm-3 (Ref.eq),6.000,R,ugm-3 (BAM)
12-01-2022,12:00,13.527,R,ugm-3 (Ref.eq),5.000,R,ugm-3 (BAM)
12-01-2022,13:00,14.493,R,ugm-3 (Ref.eq),8.000,R,ugm-3 (BAM)
12-01-2022,14:00,26.087,R,ugm-3 (Ref.eq),9.000,R,ugm-3 (BAM)
12-01-2022,15:00,23.189,R,ugm-3 (Ref.eq),8.000,R,ugm-3 (BAM)
12-01-2022,16:00,31.885,R,ugm-3 (Ref.eq),10.000,R,ugm-3 (BAM)
12-01-2022,17:00,22.223,R,ugm-3 (Ref.eq),11.000,R,ugm-3 (BAM)
12-01-2022,18:00,36.716,R,ugm-3 (Ref.eq),29.000,R,ugm-3 (BAM)
12-01-2022,19:00,36.716,R,ugm-3 (Ref.eq),31.000,R,ugm-3 (BAM)
12-01-2022,20:00,28.986,R,ugm-3 (Ref.eq),23.000,R,ugm-3 (BAM)
12-01-2022,21:00,29.952,R,ugm-3 (Ref.eq),18.000,R,ugm-3 (BAM)
12-01-2022,22:00,23.189,R,ugm-3 (Ref.eq),14.000,R,ugm-3 (BAM)
12-01-2022,23:00,21.256,R,ugm-3 (Ref.eq),16.000,R,ugm-3 (BAM)
12-01-2022,24:00,14.493,R,ugm-3 (Ref.eq),13.000,R,ugm-3 (BAM)
13-01-2022,01:00,21.256,R,ugm-3 (Ref.eq),9.000,R,ugm-3 (BAM)
13-01-2022,02:00,12.561,R,ugm-3 (Ref.eq),11.000,R,ugm-3 (BAM)
13-01-2022,03:00,12.561,R,ugm-3 (Ref.eq),9.000,R,ugm-3 (BAM)
13-01-2022,04:00,8.696,R,ugm-3 (Ref.eq),9.000,R,ugm-3 (BAM)
13-01-2022,05:00,8.696,R,ugm-3 (Ref.eq),7.000,R,ugm-3 (BAM)
13-01-2022,06:00,10.628,R,ugm-3 (Ref.eq),9.000,R,ugm-3 (BAM)
13-01-2022,07:00,9.662,R,ugm-3 (Ref.eq),7.000,R,ugm-3 (BAM)
13-01-2022,08:00,17.392,R,ugm-3 (Ref.eq),9.000,R,ugm-3 (BAM)
13-01-2022,09:00,12.561,R,ugm-3 (Ref.eq),11.000,R,ugm-3 (BAM)
13-01-2022,10:00,13.527,R,ugm-3 (Ref.eq),8.000,R,ugm-3 (BAM)
13-01-2022,11:00,14.493,R,ugm-3 (Ref.eq),8.000,R,ugm-3 (BAM)
13-01-2022,12:00,20.290,R,ugm-3 (Ref.eq),28.000,R,ugm-3 (BAM)
13-01-2022,13:00,18.358,R,ugm-3 (Ref.eq),13.000,R,ugm-3 (BAM)
13-01-2022,14:00,25.121,R,ugm-3 (Ref.eq),16.000,R,ugm-3 (BAM)
13-01-2022,15:00,25.121,R,ugm-3 (Ref.eq),13.000,R,ugm-3 (BAM)
13-01-2022,16:00,17.392,R,ugm-3 (Ref.eq),11.000,R,ugm-3 (BAM)
13-01-2022,17:00,21.256,R,ugm-3 (Ref.eq),18.000,R,ugm-3 (BAM)
13-01-2022,18:00,30.918,R,ugm-3 (Ref.eq),24.000,R,ugm-3 (BAM)
13-01-2022,19:00,30.918,R,ugm-3 (Ref.eq),27.000,R,ugm-3 (BAM)
13-01-2022,20:00,26.087,R,ugm-3 (Ref.eq),18.000,R,ugm-3 (BAM)
13-01-2022,21:00,26.087,R,ugm-3 (Ref.eq),21.000,R,ugm-3 (BAM)
13-01-2022,22:00,27.054,R,ugm-3 (Ref.eq),16.000,R,ugm-3 (BAM)
13-01-2022,23:00,16.425,R,ugm-3 (Ref.eq),13.000,R,ugm-3 (BAM)
13-01-2022,24:00,18.358,R,ugm-3 (Ref.eq),13.000,R,ugm-3 (BAM)
14-01-2022,01:00,17.392,R,ugm-3 (Ref.eq),10.000,R,ugm-3 (BAM)
14-01-2022,02:00,12.561,R,ugm-3 (Ref.eq),9.000,R,ugm-3 (BAM)
14-01-2022,03:00,9.662,R,ugm-3 (Ref.eq),9.000,R,ugm-3 (BAM)
14-01-2022,04:00,8.696,R,ugm-3 (Ref.eq),10.000,R,ugm-3 (BAM)
14-01-2022,05:00,11.594,R,ugm-3 (Ref.eq),10.000,R,ugm-3 (BAM)
14-01-2022,06:00,11.594,R,ugm-3 (Ref.eq),7.000,R,ugm-3 (BAM)
14-01-2022,07:00,7.730,R,ugm-3 (Ref.eq),7.000,R,ugm-3 (BAM)
14-01-2022,08:00,8.696,R,ugm-3 (Ref.eq),9.000,R,ugm-3 (BAM)
14-01-2022,09:00,16.425,R,ugm-3 (Ref.eq),11.000,R,ugm-3 (BAM)
14-01-2022,10:00,13.527,R,ugm-3 (Ref.eq),12.000,R,ugm-3 (BAM)
14-01-2022,11:00,17.392,R,ugm-3 (Ref.eq),12.000,R,ugm-3 (BAM)
14-01-2022,12:00,7.730,R,ugm-3 (Ref.eq),10.000,R,ugm-3 (BAM)
14-01-2022,13:00,6.763,R,ugm-3 (Ref.eq),6.000,R,ugm-3 (BAM)
14-01-2022,14:00,14.493,R,ugm-3 (Ref.eq),7.000,R,ugm-3 (BAM)
14-01-2022,15:00,14.493,R,ugm-3 (Ref.eq),9.000,R,ugm-3 (BAM)
14-01-2022,16:00,14.493,R,ugm-3 (Ref.eq),11.000,R,ugm-3 (BAM)
14-01-2022,17:00,16.425,R,ugm-3 (Ref.eq),11.000,R,ugm-3 (BAM)
14-01-2022,18:00,21.256,R,ugm-3 (Ref.eq),12.000,R,ugm-3 (BAM)
14-01-2022,19:00,21.256,R,ugm-3 (Ref.eq),16.000,R,ugm-3 (BAM)
14-01-2022,20:00,28.986,R,ugm-3 (Ref.eq),21.000,R,ugm-3 (BAM)
14-01-2022,21:00,19.324,R,ugm-3 (Ref.eq),12.000,R,ugm-3 (BAM)
14-01-2022,22:00,16.425,R,ugm-3 (Ref.eq),12.000,R,ugm-3 (BAM)
14-01-2022,23:00,15.459,R,ugm-3 (Ref.eq),11.000,R,ugm-3 (BAM)
14-01-2022,24:00,20.290,R,ugm-3 (Ref.eq),11.000,R,ugm-3 (BAM)
15-01-2022,01:00,19.324,R,ugm-3 (Ref.eq),9.000,R,ugm-3 (BAM)
15-01-2022,02:00,6.763,R,ugm-3 (Ref.eq),4.000,R,ugm-3 (BAM)
15-01-2022,03:00,11.594,R,ugm-3 (Ref.eq),4.000,R,ugm-3 (BAM)
15-01-2022,04:00,14.493,R,ugm-3 (Ref.eq),9.000,R,ugm-3 (BAM)
15-01-2022,05:00,14.493,R,ugm-3 (Ref.eq),10.000,R,ugm-3 (BAM)
15-01-2022,06:00,14.493,R,ugm-3 (Ref.eq),9.000,R,ugm-3 (BAM)
15-01-2022,07:00,14.493,R,ugm-3 (Ref.eq),9.000,R,ugm-3 (BAM)
15-01-2022,08:00,17.392,R,ugm-3 (Ref.eq),13.000,R,ugm-3 (BAM)
15-01-2022,09:00,15.459,R,ugm-3 (Ref.eq),12.000,R,ugm-3 (BAM)
15-01-2022,10:00,25.121,R,ugm-3 (Ref.eq),28.000,R,ugm-3 (BAM)
15-01-2022,11:00,15.459,R,ugm-3 (Ref.eq),12.000,R,ugm-3 (BAM)
15-01-2022,12:00,8.696,R,ugm-3 (Ref.eq),9.000,R,ugm-3 (BAM)
15-01-2022,13:00,6.763,R,ugm-3 (Ref.eq),3.000,R,ugm-3 (BAM)
15-01-2022,14:00,12.561,R,ugm-3 (Ref.eq),7.000,R,ugm-3 (BAM)
15-01-2022,15:00,8.696,R,ugm-3 (Ref.eq),6.000,R,ugm-3 (BAM)
15-01-2022,16:00,7.730,R,ugm-3 (Ref.eq),2.000,R,ugm-3 (BAM)
15-01-2022,17:00,9.662,R,ugm-3 (Ref.eq),4.000,R,ugm-3 (BAM)
15-01-2022,18:00,17.392,R,ugm-3 (Ref.eq),9.000,R,ugm-3 (BAM)
15-01-2022,19:00,5.797,R,ugm-3 (Ref.eq),6.000,R,ugm-3 (BAM)
15-01-2022,20:00,10.628,R,ugm-3 (Ref.eq),2.000,R,ugm-3 (BAM)
15-01-2022,21:00,7.730,R,ugm-3 (Ref.eq),4.000,R,ugm-3 (BAM)
15-01-2022,22:00,8.696,R,ugm-3 (Ref.eq),3.000,R,ugm-3 (BAM)
15-01-2022,23:00,6.763,R,ugm-3 (Ref.eq),4.000,R,ugm-3 (BAM)
15-01-2022,24:00,7.730,R,ugm-3 (Ref.eq),5.000,R,ugm-3 (BAM)
16-01-2022,01:00,6.763,R,ugm-3 (Ref.eq),6.000,R,ugm-3 (BAM)
16-01-2022,02:00,9.662,R,ugm-3 (Ref.eq),5.000,R,ugm-3 (BAM)
16-01-2022,03:00,19.324,R,ugm-3 (Ref.eq),9.000,R,ugm-3 (BAM)
16-01-2022,04:00,13.527,R,ugm-3 (Ref.eq),8.000,R,ugm-3 (BAM)
16-01-2022,05:00,9.662,R,ugm-3 (Ref.eq),4.000,R,ugm-3 (BAM)
16-01-2022,06:00,9.662,R,ugm-3 (Ref.eq),2.000,R,ugm-3 (BAM)
16-01-2022,07:00,9.662,R,ugm-3 (Ref.eq),3.000,R,ugm-3 (BAM)
16-01-2022,08:00,7.730,R,ugm-3 (Ref.eq),5.000,R,ugm-3 (BAM)
16-01-2022,09:00,6.763,R,ugm-3 (Ref.eq),5.000,R,ugm-3 (BAM)
16-01-2022,10:00,5.797,R,ugm-3 (Ref.eq),4.000,R,ugm-3 (BAM)
16-01-2022,11:00,9.662,R,ugm-3 (Ref.eq),7.000,R,ugm-3 (BAM)
16-01-2022,12:00,6.763,R,ugm-3 (Ref.eq),7.000,R,ugm-3 (BAM)
16-01-2022,13:00,6.763,R,ugm-3 (Ref.eq),5.000,R,ugm-3 (BAM)
16-01-2022,14:00,10.628,R,ugm-3 (Ref.eq),3.000,R,ugm-3 (BAM)
16-01-2022,15:00,13.527,R,ugm-3 (Ref.eq),4.000,R,ugm-3 (BAM)
16-01-2022,16:00,10.628,R,ugm-3 (Ref.eq),8.000,R,ugm-3 (BAM)
16-01-2022,17:00,13.527,R,ugm-3 (Ref.eq),7.000,R,ugm-3 (BAM)
16-01-2022,18:00,9.662,R,ugm-3 (Ref.eq),6.000,R,ugm-3 (BAM)
16-01-2022,19:00,15.459,R,ugm-3 (Ref.eq),8.000,R,ugm-3 (BAM)
16-01-2022,20:00,12.561,R,ugm-3 (Ref.eq),8.000,R,ugm-3 (BAM)
16-01-2022,21:00,8.696,R,ugm-3 (Ref.eq),6.000,R,ugm-3 (BAM)
16-01-2022,22:00,9.662,R,ugm-3 (Ref.eq),4.000,R,ugm-3 (BAM)
16-01-2022,23:00,12.561,R,ugm-3 (Ref.eq),5.000,R,ugm-3 (BAM)
16-01-2022,24:00,11.594,R,ugm-3 (Ref.eq),8.000,R,ugm-3 (BAM)
17-01-2022,01:00,9.662,R,ugm-3 (Ref.eq),8.000,R,ugm-3 (BAM)
17-01-2022,02:00,8.696,R,ugm-3 (Ref.eq),4.000,R,ugm-3 (BAM)
17-01-2022,03:00,8.696,R,ugm-3 (Ref.eq),1.000,R,ugm-3 (BAM)
17-01-2022,04:00,10.628,R,ugm-3 (Ref.eq),2.000,R,ugm-3 (BAM)
17-01-2022,05:00,9.662,R,ugm-3 (Ref.eq),4.000,R,ugm-3 (BAM)